This is the latest recevied weather packets stored in our database for station/object K9RCP-24. If no packets are shown the sender has not sent any weather packets the latest 10 day(s).
| Time | Temp. | Humidity | Pressure | Rain* | Wind** | Luminosity | Snow |
|---|---|---|---|---|---|---|---|
| 1777506776 | 21.11° C | 38% | 1024.7 hPa | 0 mm | - | - | - |
| 1777506154 | 21.11° C | 37% | 1024.7 hPa | 0 mm | - | - | - |
| 1777505783 | 21.11° C | 37% | 1025.1 hPa | 0 mm | - | - | - |
| 1777505657 | 21.11° C | 38% | 1025.1 hPa | 0 mm | - | - | - |
| 1777503043 | 20.56° C | 40% | 1025.4 hPa | 0 mm | - | - | - |
| 1777502918 | 20.56° C | 41% | 1025.7 hPa | 0 mm | - | - | - |
| 1777500396 | 19.44° C | 41% | 1026.1 hPa | 0 mm | - | - | - |
| 1777500023 | 19.44° C | 42% | 1026.4 hPa | 0 mm | - | - | - |
| 1777499504 | 19.44° C | 41% | 1026.4 hPa | 0 mm | - | - | - |
| 1777498872 | 19.44° C | 42% | 1026.4 hPa | 0 mm | - | - | - |
| 1777498624 | 18.89° C | 39% | 1026.1 hPa | 0 mm | - | - | - |
| 1777498375 | 18.89° C | 40% | 1026.4 hPa | 0 mm | - | - | - |
| 1777498127 | 18.89° C | 41% | 1026.8 hPa | 0 mm | - | - | - |
| 1777497744 | 18.33° C | 41% | 1026.4 hPa | 0 mm | - | - | - |
| 1777497363 | 18.33° C | 41% | 1026.4 hPa | 0 mm | - | - | - |
| 1777494846 | 17.78° C | 43% | 1026.8 hPa | 0 mm | - | - | - |
| 1777493665 | 16.67° C | 46% | 1026.8 hPa | 0 mm | - | - | - |
| 1777491618 | 16.67° C | 45% | 1027.1 hPa | 0 mm | - | - | - |
| 1777490999 | 16.11° C | 47% | 1027.1 hPa | 0 mm | - | - | - |
| 1777490191 | 15.56° C | 49% | 1027.4 hPa | 0 mm | - | - | - |
| 1777489664 | 15° C | 48% | 1027.1 hPa | 0 mm | - | - | - |
| 1777489540 | 15.56° C | 49% | 1027.4 hPa | 0 mm | - | - | - |
| 1777489395 | 15.56° C | 49% | 1027.4 hPa | 0 mm | - | - | - |
| 1777488357 | 15° C | 48% | 1027.8 hPa | 0 mm | - | - | - |
| 1777487951 | 15° C | 51% | 1027.8 hPa | 0 mm | - | - | - |
* Rain latest hour (hover to see other rain measurements)
** Current wind speed in m/s (hover to see current wind gust speed)